Menu

In Person Flight Instructor Refresher Courses

Air Safety Institute Logo

Welcome

Flight Instructor Refresher Course

The AOPA Air Safety Institute In-Person Flight Instructor Refresher Course gives you the opportunity to renew your flight instructor certificate together with other flight instructors in your area. The two day course is led by expert presenters who are knowledgeable and engaging. Not only will you refresh your knowledge and pick up some new information, but you will also be able to network with other local professional pilots.

Location Start Time End Time State Latitude Longitude cssIndex Topic cssIndex
Fort Worth, TX 08-05-2017 7:30 AM 08-06-2017 5:00 PM Learn More Texas 32.823115000000000 -97.056111000000000 1 mtgFlightInstructorRefresherCourse FIRC_TX_170805
Reno, NV 08-05-2017 7:30 AM 08-06-2017 5:00 PM Learn More Nevada 39.530088000000000 -119.814463000000000 1 mtgFlightInstructorRefresherCourse FIRC_NV_170805
Atlanta, GA 08-12-2017 7:30 AM 08-13-2017 5:00 PM Learn More Georgia 33.654829000000000 -84.429079000000000 1 mtgFlightInstructorRefresherCourse FIRC_GA_170812
Costa Mesa, CA 08-12-2017 7:30 AM 08-13-2017 5:00 PM Learn More California 33.685262000000000 -117.885804000000000 1 mtgFlightInstructorRefresherCourse FIRC_CA_170812
Allentown, PA 08-19-2017 7:30 AM 08-20-2017 5:00 PM Learn More Pennsylvania 40.602435000000000 -75.471976000000000 1 mtgFlightInstructorRefresherCourse FIRC_PA_170819
Elkridge, MD 09-09-2017 7:30 AM 09-10-2017 5:00 PM Learn More Maryland 39.184351000000000 -76.755569000000000 1 mtgFlightInstructorRefresherCourse FIRC_MD_170909
Sacramento, CA 09-09-2017 7:30 AM 09-10-2017 5:00 PM Learn More California 38.663058000000000 -121.355317000000000 1 mtgFlightInstructorRefresherCourse FIRC_CA_170909
Sandston, VA 09-16-2017 7:30 AM 09-17-2017 5:00 PM Learn More Virginia 37.524746000000000 -77.325863000000000 1 mtgFlightInstructorRefresherCourse FIRC_VA_170916
Colorado Springs, CO 09-23-2017 7:30 AM 09-24-2017 5:00 PM Learn More Colorado 38.796367000000000 -104.795605000000000 1 mtgFlightInstructorRefresherCourse FIRC_CO_170923
Tempe, AZ 09-23-2017 7:30 AM 09-24-2017 5:00 PM Learn More Arizona 33.406821000000000 -111.960905000000000 1 mtgFlightInstructorRefresherCourse FIRC_AZ_170923
Indianapolis, IN 10-07-2017 7:30 AM 10-08-2017 5:00 PM Learn More Indiana 39.729767000000000 -86.269647000000000 1 mtgFlightInstructorRefresherCourse FIRC_IN_171007
Nashville, TN 10-14-2017 7:30 AM 10-15-2017 5:00 PM Learn More Tennessee 36.158482000000000 -86.690913000000000 1 mtgFlightInstructorRefresherCourse FIRC_TN_171014
Santa Clara, CA 10-14-2017 7:30 AM 10-15-2017 5:00 PM Learn More California 37.382500000000000 -121.979300000000000 1 mtgFlightInstructorRefresherCourse FIRC_CA_171014
Windsor Locks, CT 10-14-2017 7:30 AM 10-15-2017 5:00 PM Learn More Connecticut 41.916917000000000 -72.673685000000000 1 mtgFlightInstructorRefresherCourse FIRC_CT_171014
Wichita, KS 10-21-2017 7:30 AM 10-22-2017 5:00 PM Learn More Kansas 37.657533000000000 -97.425114000000000 1 mtgFlightInstructorRefresherCourse FIRC_KS_171021
Austin, TX 11-04-2017 7:30 AM 11-05-2017 5:00 PM Learn More Texas 30.213886000000000 -97.703906000000000 1 mtgFlightInstructorRefresherCourse FIRC_TX_171104
Albuquerque, NM 11-11-2017 7:30 AM 11-12-2017 5:00 PM Learn More New Mexico 35.109027000000000 -106.623303000000000 1 mtgFlightInstructorRefresherCourse FIRC_NM_171111
Anchorage, AK 11-11-2017 7:30 AM 11-12-2017 5:00 PM Learn More Alaska 61.216714000000000 -149.876841000000000 1 mtgFlightInstructorRefresherCourse FIRC_AK_171111
Atlanta, GA 11-11-2017 7:30 AM 11-12-2017 5:00 PM Learn More Georgia 33.659125000000000 -84.437489000000000 1 mtgFlightInstructorRefresherCourse FIRC_GA_171111
Ashburn, VA 11-18-2017 7:30 AM 11-19-2017 5:00 PM Learn More Virginia 39.012322000000000 -77.459647000000000 1 mtgFlightInstructorRefresherCourse FIRC_VA_171118
San Diego, CA 11-18-2017 7:30 AM 11-19-2017 5:00 PM Learn More California 32.725703000000000 -117.223193000000000 1 mtgFlightInstructorRefresherCourse FIRC_CA_171118
Denver, CO 12-02-2017 7:30 AM 12-03-2017 5:00 PM Learn More Colorado 39.823535000000000 -104.774471000000000 1 mtgFlightInstructorRefresherCourse FIRC_CO_171202
Northbrook, IL 12-02-2017 7:30 AM 12-03-2017 5:00 PM Learn More Illinois 42.101270000000000 -87.883619000000000 1 mtgFlightInstructorRefresherCourse FIRC_IL_171202
Lake Mary, FL 12-09-2017 7:30 AM 12-10-2017 5:00 PM Learn More Florida 28.758404000000000 -81.360415000000000 1 mtgFlightInstructorRefresherCourse FIRC_FL_171209

Questions? Contact us at [email protected] or 800/USA-AOPA (800/872-2672)
Monday - Friday, 8:30 am - 6:00 pm ET